Time,TemperatureF,DewpointF,PressureIn,WindDirection,WindDirectionDegrees,WindSpeedMPH,WindSpeedGustMPH,Humidity,HourlyPrecipIn,Conditions,Clouds,dailyrainin,SoftwareType,DateUTC
2013-01-26 00:01:00,16.6,13.1,30.09,SW,216,0.0,0.0,86,0.00,,,0.00,Wunderground v.1.15,2013-01-26 05:01:00,
2013-01-26 00:05:00,16.4,13.2,30.09,SW,216,0.0,0.0,87,0.00,,,0.00,Wunderground v.1.15,2013-01-26 05:05:00,
2013-01-26 00:06:00,16.4,13.2,30.09,SW,216,0.0,0.0,87,0.00,,,0.00,Wunderground v.1.15,2013-01-26 05:06:00,
2013-01-26 00:12:00,16.3,13.4,30.10,SW,216,0.0,0.0,88,0.00,,,0.00,Wunderground v.1.15,2013-01-26 05:12:00,
2013-01-26 00:20:00,16.3,13.6,30.10,SW,216,0.0,0.0,89,0.00,,,0.00,Wunderground v.1.15,2013-01-26 05:20:00,
2013-01-26 00:27:00,16.3,13.6,30.10,SW,216,0.0,0.0,89,0.00,,,0.00,Wunderground v.1.15,2013-01-26 05:27:00,
2013-01-26 00:35:00,16.4,13.7,30.09,SW,216,0.0,0.0,89,0.00,,,0.00,Wunderground v.1.15,2013-01-26 05:35:00,
2013-01-26 00:41:00,16.4,13.7,30.09,SW,216,0.0,0.0,89,0.00,,,0.00,Wunderground v.1.15,2013-01-26 05:41:00,
2013-01-26 00:46:00,16.4,13.7,30.09,SW,216,0.0,0.0,89,0.00,,,0.00,Wunderground v.1.15,2013-01-26 05:46:00,
2013-01-26 00:55:00,16.3,13.6,30.09,SW,216,0.0,0.0,89,0.00,,,0.00,Wunderground v.1.15,2013-01-26 05:55:00,
2013-01-26 01:00:00,16.2,13.5,30.09,SW,216,0.0,0.0,89,0.00,,,0.00,Wunderground v.1.15,2013-01-26 06:00:00,
2013-01-26 01:06:00,16.1,13.4,30.09,SW,216,0.0,0.0,89,0.00,,,0.00,Wunderground v.1.15,2013-01-26 06:06:00,
2013-01-26 01:12:00,15.9,13.0,30.09,SW,216,0.0,0.0,88,0.00,,,0.00,Wunderground v.1.15,2013-01-26 06:12:00,
2013-01-26 01:21:00,15.7,13.0,30.09,SW,216,0.0,0.0,89,0.00,,,0.00,Wunderground v.1.15,2013-01-26 06:21:00,
2013-01-26 01:26:00,15.5,12.8,30.09,SW,216,0.0,0.0,89,0.00,,,0.00,Wunderground v.1.15,2013-01-26 06:26:00,
2013-01-26 01:32:00,15.5,13.1,30.09,SW,216,0.0,0.0,90,0.00,,,0.00,Wunderground v.1.15,2013-01-26 06:32:00,
2013-01-26 01:41:00,15.4,13.0,30.09,SW,216,0.0,0.0,90,0.00,,,0.00,Wunderground v.1.15,2013-01-26 06:41:00,
2013-01-26 01:47:00,15.4,13.0,30.09,SW,216,0.0,0.0,90,0.00,,,0.00,Wunderground v.1.15,2013-01-26 06:47:00,
2013-01-26 01:55:00,15.4,12.7,30.09,SW,216,0.0,0.0,89,0.00,,,0.00,Wunderground v.1.15,2013-01-26 06:55:00,
2013-01-26 02:00:00,15.4,12.7,30.09,SW,216,0.0,0.0,89,0.00,,,0.00,Wunderground v.1.15,2013-01-26 07:00:00,
2013-01-26 02:05:00,15.4,12.7,30.09,SW,216,0.0,0.0,89,0.00,,,0.00,Wunderground v.1.15,2013-01-26 07:05:00,
2013-01-26 02:10:00,15.3,12.6,30.08,SW,216,0.0,0.0,89,0.00,,,0.00,Wunderground v.1.15,2013-01-26 07:10:00,
2013-01-26 02:16:00,15.3,12.6,30.09,SW,216,0.0,0.0,89,0.00,,,0.00,Wunderground v.1.15,2013-01-26 07:16:00,
2013-01-26 02:21:00,15.2,12.5,30.08,SW,216,0.0,1.0,89,0.00,,,0.00,Wunderground v.1.15,2013-01-26 07:21:00,
2013-01-26 02:26:00,15.2,12.3,30.08,SW,216,0.0,1.0,88,0.00,,,0.00,Wunderground v.1.15,2013-01-26 07:26:00,
2013-01-26 02:31:00,15.3,12.4,30.08,SW,216,0.0,0.0,88,0.00,,,0.00,Wunderground v.1.15,2013-01-26 07:31:00,
2013-01-26 02:36:00,15.2,12.3,30.08,SW,216,0.0,2.0,88,0.00,,,0.00,Wunderground v.1.15,2013-01-26 07:36:00,
2013-01-26 02:41:00,15.3,12.4,30.08,SW,216,0.0,0.0,88,0.00,,,0.00,Wunderground v.1.15,2013-01-26 07:41:00,
2013-01-26 02:46:00,15.2,12.0,30.08,SW,216,0.0,0.0,87,0.00,,,0.00,Wunderground v.1.15,2013-01-26 07:46:00,
2013-01-26 02:51:00,15.2,12.0,30.08,SW,216,0.0,0.0,87,0.00,,,0.00,Wunderground v.1.15,2013-01-26 07:51:00,
2013-01-26 02:56:00,15.2,12.0,30.08,SW,216,0.0,1.0,87,0.00,,,0.00,Wunderground v.1.15,2013-01-26 07:56:00,
2013-01-26 03:01:00,15.2,12.0,30.07,SW,216,0.0,0.0,87,0.00,,,0.00,Wunderground v.1.15,2013-01-26 08:01:00,
2013-01-26 03:06:00,15.1,11.9,30.07,SW,216,0.0,0.0,87,0.00,,,0.00,Wunderground v.1.15,2013-01-26 08:06:00,
2013-01-26 03:11:00,15.0,11.8,30.07,SW,216,0.0,0.0,87,0.00,,,0.00,Wunderground v.1.15,2013-01-26 08:11:00,
2013-01-26 03:16:00,14.9,11.7,30.07,SW,216,0.0,0.0,87,0.00,,,0.00,Wunderground v.1.15,2013-01-26 08:16:00,
2013-01-26 03:21:00,14.8,11.4,30.07,SW,216,0.0,1.0,86,0.00,,,0.00,Wunderground v.1.15,2013-01-26 08:21:00,
2013-01-26 03:26:00,14.8,11.6,30.07,SW,216,0.0,1.0,87,0.00,,,0.00,Wunderground v.1.15,2013-01-26 08:26:00,
2013-01-26 03:31:00,14.7,11.5,30.07,SW,216,0.0,0.0,87,0.00,,,0.00,Wunderground v.1.15,2013-01-26 08:31:00,
2013-01-26 03:37:00,14.6,11.4,30.07,SW,216,0.0,0.0,87,0.00,,,0.00,Wunderground v.1.15,2013-01-26 08:37:00,
2013-01-26 03:42:00,14.5,11.1,30.07,SW,216,0.0,0.0,86,0.00,,,0.00,Wunderground v.1.15,2013-01-26 08:42:00,
2013-01-26 03:47:00,14.5,11.3,30.07,SW,216,0.0,0.0,87,0.00,,,0.00,Wunderground v.1.15,2013-01-26 08:47:00,
2013-01-26 03:52:00,14.4,11.2,30.07,SW,216,0.0,0.0,87,0.00,,,0.00,Wunderground v.1.15,2013-01-26 08:52:00,
2013-01-26 03:57:00,14.4,11.2,30.07,SW,216,0.0,0.0,87,0.00,,,0.00,Wunderground v.1.15,2013-01-26 08:57:00,
2013-01-26 04:02:00,14.4,11.2,30.07,SW,216,0.0,0.0,87,0.00,,,0.00,Wunderground v.1.15,2013-01-26 09:02:00,
2013-01-26 04:07:00,14.4,11.2,30.07,SW,216,0.0,1.0,87,0.00,,,0.00,Wunderground v.1.15,2013-01-26 09:07:00,
2013-01-26 04:12:00,14.4,11.2,30.07,SW,216,0.0,0.0,87,0.00,,,0.00,Wunderground v.1.15,2013-01-26 09:12:00,
2013-01-26 04:17:00,14.4,11.0,30.07,SW,216,0.0,1.0,86,0.00,,,0.00,Wunderground v.1.15,2013-01-26 09:17:00,
2013-01-26 04:22:00,14.4,11.0,30.08,SW,216,0.0,0.0,86,0.00,,,0.00,Wunderground v.1.15,2013-01-26 09:22:00,
2013-01-26 04:27:00,14.4,11.0,30.08,SW,216,0.0,1.0,86,0.00,,,0.00,Wunderground v.1.15,2013-01-26 09:27:00,
2013-01-26 04:32:00,14.3,10.9,30.08,SW,216,0.0,1.0,86,0.00,,,0.00,Wunderground v.1.15,2013-01-26 09:32:00,
2013-01-26 04:37:00,14.3,10.9,30.08,SW,216,0.0,1.0,86,0.00,,,0.00,Wunderground v.1.15,2013-01-26 09:37:00,
2013-01-26 04:42:00,14.2,10.8,30.08,SW,216,0.0,0.0,86,0.00,,,0.00,Wunderground v.1.15,2013-01-26 09:42:00,
2013-01-26 04:47:00,14.1,10.7,30.08,SW,216,0.0,0.0,86,0.00,,,0.00,Wunderground v.1.15,2013-01-26 09:47:00,
2013-01-26 04:52:00,14.0,10.6,30.08,SW,216,0.0,0.0,86,0.00,,,0.00,Wunderground v.1.15,2013-01-26 09:52:00,
2013-01-26 04:57:00,13.9,10.5,30.08,SW,216,0.0,1.0,86,0.00,,,0.00,Wunderground v.1.15,2013-01-26 09:57:00,
2013-01-26 05:03:00,13.9,10.2,30.09,SW,216,1.0,1.0,85,0.00,,,0.00,Wunderground v.1.15,2013-01-26 10:03:00,
2013-01-26 05:10:00,13.9,10.2,30.09,SW,216,0.0,1.0,85,0.00,,,0.00,Wunderground v.1.15,2013-01-26 10:10:00,
2013-01-26 05:15:00,14.0,10.3,30.09,SW,216,0.0,1.0,85,0.00,,,0.00,Wunderground v.1.15,2013-01-26 10:15:00,
2013-01-26 05:21:00,13.9,10.2,30.09,SW,216,0.0,1.0,85,0.00,,,0.00,Wunderground v.1.15,2013-01-26 10:21:00,
2013-01-26 05:26:00,13.9,10.2,30.09,SW,216,0.0,0.0,85,0.00,,,0.00,Wunderground v.1.15,2013-01-26 10:26:00,
2013-01-26 05:31:00,13.7,10.0,30.09,SW,216,0.0,0.0,85,0.00,,,0.00,Wunderground v.1.15,2013-01-26 10:31:00,
2013-01-26 05:36:00,13.6,9.7,30.10,SW,216,0.0,0.0,84,0.00,,,0.00,Wunderground v.1.15,2013-01-26 10:36:00,
2013-01-26 05:41:00,13.3,9.4,30.10,SW,216,0.0,0.0,84,0.00,,,0.00,Wunderground v.1.15,2013-01-26 10:41:00,
2013-01-26 05:46:00,13.1,9.4,30.11,SW,216,0.0,0.0,85,0.00,,,0.00,Wunderground v.1.15,2013-01-26 10:46:00,
2013-01-26 05:51:00,13.1,9.7,30.11,SW,216,0.0,0.0,86,0.00,,,0.00,Wunderground v.1.15,2013-01-26 10:51:00,
2013-01-26 05:56:00,13.0,9.6,30.11,SW,216,0.0,0.0,86,0.00,,,0.00,Wunderground v.1.15,2013-01-26 10:56:00,
2013-01-26 06:01:00,13.0,9.9,30.11,SW,216,0.0,0.0,87,0.00,,,0.00,Wunderground v.1.15,2013-01-26 11:01:00,
2013-01-26 06:06:00,13.0,9.9,30.11,SW,216,0.0,0.0,87,0.00,,,0.00,Wunderground v.1.15,2013-01-26 11:06:00,
2013-01-26 06:11:00,13.0,9.9,30.12,SW,216,0.0,0.0,87,0.00,,,0.00,Wunderground v.1.15,2013-01-26 11:11:00,
2013-01-26 06:16:00,12.9,9.8,30.12,SW,216,0.0,0.0,87,0.00,,,0.00,Wunderground v.1.15,2013-01-26 11:16:00,
2013-01-26 06:21:00,12.8,9.7,30.12,SW,216,0.0,0.0,87,0.00,,,0.00,Wunderground v.1.15,2013-01-26 11:21:00,
2013-01-26 06:26:00,12.8,9.7,30.12,SW,216,0.0,0.0,87,0.00,,,0.00,Wunderground v.1.15,2013-01-26 11:26:00,
2013-01-26 06:31:00,12.9,9.8,30.12,SW,216,0.0,0.0,87,0.00,,,0.00,Wunderground v.1.15,2013-01-26 11:31:00,
2013-01-26 06:37:00,13.0,9.9,30.12,SW,216,0.0,0.0,87,0.00,,,0.00,Wunderground v.1.15,2013-01-26 11:37:00,
2013-01-26 06:42:00,13.1,10.0,30.12,SW,216,0.0,0.0,87,0.00,,,0.00,Wunderground v.1.15,2013-01-26 11:42:00,
2013-01-26 06:47:00,13.1,9.7,30.12,SW,216,0.0,0.0,86,0.00,,,0.00,Wunderground v.1.15,2013-01-26 11:47:00,
2013-01-26 06:52:00,13.1,9.7,30.13,SW,216,0.0,0.0,86,0.00,,,0.00,Wunderground v.1.15,2013-01-26 11:52:00,
2013-01-26 06:57:00,13.1,9.7,30.13,SW,216,0.0,0.0,86,0.00,,,0.00,Wunderground v.1.15,2013-01-26 11:57:00,
2013-01-26 07:02:00,13.1,9.7,30.13,SW,216,0.0,0.0,86,0.00,,,0.00,Wunderground v.1.15,2013-01-26 12:02:00,
2013-01-26 07:07:00,13.1,9.7,30.13,SW,216,0.0,0.0,86,0.00,,,0.00,Wunderground v.1.15,2013-01-26 12:07:00,
2013-01-26 07:12:00,13.1,9.7,30.13,SW,216,0.0,0.0,86,0.00,,,0.00,Wunderground v.1.15,2013-01-26 12:12:00,
2013-01-26 07:17:00,13.2,9.5,30.13,SW,216,0.0,1.0,85,0.00,,,0.00,Wunderground v.1.15,2013-01-26 12:17:00,
2013-01-26 07:22:00,13.2,9.5,30.14,SW,216,0.0,0.0,85,0.00,,,0.00,Wunderground v.1.15,2013-01-26 12:22:00,
2013-01-26 07:27:00,13.2,9.5,30.15,SW,216,0.0,0.0,85,0.00,,,0.00,Wunderground v.1.15,2013-01-26 12:27:00,
2013-01-26 07:32:00,13.3,9.6,30.15,SW,215,0.0,0.0,85,0.00,,,0.00,Wunderground v.1.15,2013-01-26 12:32:00,
2013-01-26 07:37:00,13.4,9.7,30.15,SW,216,0.0,0.0,85,0.00,,,0.00,Wunderground v.1.15,2013-01-26 12:37:00,
2013-01-26 07:42:00,13.5,9.8,30.15,SW,216,0.0,1.0,85,0.00,,,0.00,Wunderground v.1.15,2013-01-26 12:42:00,
2013-01-26 07:47:00,13.7,9.8,30.15,SW,216,0.0,1.0,84,0.00,,,0.00,Wunderground v.1.15,2013-01-26 12:47:00,
2013-01-26 07:52:00,13.9,10.0,30.15,NNW,329,1.0,2.0,84,0.00,,,0.00,Wunderground v.1.15,2013-01-26 12:52:00,
2013-01-26 07:57:00,14.1,9.9,30.15,NNW,329,0.0,2.0,83,0.00,,,0.00,Wunderground v.1.15,2013-01-26 12:57:00,
2013-01-26 08:02:00,14.2,10.0,30.16,NNW,329,0.0,1.0,83,0.00,,,0.00,Wunderground v.1.15,2013-01-26 13:02:00,
2013-01-26 08:07:00,14.3,9.8,30.16,NNW,329,1.0,2.0,82,0.00,,,0.00,Wunderground v.1.15,2013-01-26 13:07:00,
2013-01-26 08:12:00,14.4,9.9,30.16,NNW,329,0.0,0.0,82,0.00,,,0.00,Wunderground v.1.15,2013-01-26 13:12:00,
2013-01-26 08:17:00,14.6,10.1,30.17,NNW,329,0.0,1.0,82,0.00,,,0.00,Wunderground v.1.15,2013-01-26 13:17:00,
2013-01-26 08:22:00,14.8,10.3,30.17,NNW,329,0.0,0.0,82,0.00,,,0.00,Wunderground v.1.15,2013-01-26 13:22:00,
2013-01-26 08:27:00,15.1,10.3,30.17,NNW,329,0.0,0.0,81,0.00,,,0.00,Wunderground v.1.15,2013-01-26 13:27:00,
2013-01-26 08:32:00,15.3,10.2,30.17,NNW,340,2.0,2.0,80,0.00,,,0.00,Wunderground v.1.15,2013-01-26 13:32:00,
2013-01-26 08:37:00,15.5,10.1,30.17,NNW,340,1.0,2.0,79,0.00,,,0.00,Wunderground v.1.15,2013-01-26 13:37:00,
2013-01-26 08:42:00,15.7,10.1,30.17,North,350,0.0,1.0,78,0.00,,,0.00,Wunderground v.1.15,2013-01-26 13:42:00,
2013-01-26 08:47:00,15.9,10.3,30.17,North,350,1.0,2.0,78,0.00,,,0.00,Wunderground v.1.15,2013-01-26 13:47:00,
2013-01-26 08:52:00,16.1,10.4,30.17,North,4,2.0,3.0,78,0.00,,,0.00,Wunderground v.1.15,2013-01-26 13:52:00,
2013-01-26 08:57:00,16.3,10.4,30.17,North,3,0.0,3.0,77,0.00,,,0.00,Wunderground v.1.15,2013-01-26 13:57:00,
2013-01-26 09:02:00,16.6,10.6,30.17,North,3,0.0,1.0,77,0.00,,,0.00,Wunderground v.1.15,2013-01-26 14:02:00,
2013-01-26 09:07:00,16.9,10.3,30.17,North,356,0.0,2.0,75,0.00,,,0.00,Wunderground v.1.15,2013-01-26 14:07:00,
2013-01-26 09:12:00,17.2,10.6,30.17,North,355,1.0,2.0,75,0.00,,,0.00,Wunderground v.1.15,2013-01-26 14:12:00,
2013-01-26 09:17:00,17.5,10.6,30.17,North,355,0.0,2.0,74,0.00,,,0.00,Wunderground v.1.15,2013-01-26 14:17:00,
2013-01-26 09:22:00,17.7,10.5,30.17,North,355,0.0,1.0,73,0.00,,,0.00,Wunderground v.1.15,2013-01-26 14:22:00,
2013-01-26 09:27:00,18.0,10.8,30.17,NNE,22,3.0,3.0,73,0.00,,,0.00,Wunderground v.1.15,2013-01-26 14:27:00,
2013-01-26 09:32:00,18.0,10.8,30.17,North,6,1.0,2.0,73,0.00,,,0.00,Wunderground v.1.15,2013-01-26 14:32:00,
2013-01-26 09:37:00,18.2,11.0,30.18,North,10,2.0,2.0,73,0.00,,,0.00,Wunderground v.1.15,2013-01-26 14:37:00,
2013-01-26 09:42:00,18.5,10.7,30.18,NNW,332,2.0,4.0,71,0.00,,,0.00,Wunderground v.1.15,2013-01-26 14:42:00,
2013-01-26 09:47:00,18.7,11.2,30.18,North,358,0.0,4.0,72,0.00,,,0.00,Wunderground v.1.15,2013-01-26 14:47:00,
2013-01-26 09:52:00,19.1,11.2,30.18,North,356,1.0,4.0,71,0.00,,,0.00,Wunderground v.1.15,2013-01-26 14:52:00,
2013-01-26 09:57:00,19.2,10.7,30.18,NNW,348,2.0,6.0,69,0.00,,,0.00,Wunderground v.1.15,2013-01-26 14:57:00,
2013-01-26 10:02:00,19.2,10.7,30.18,North,7,0.0,3.0,69,0.00,,,0.00,Wunderground v.1.15,2013-01-26 15:02:00,
2013-01-26 10:07:00,19.4,10.9,30.19,NNW,343,3.0,5.0,69,0.00,,,0.00,Wunderground v.1.15,2013-01-26 15:07:00,
2013-01-26 10:13:00,19.5,10.6,30.19,West,269,3.0,4.0,68,0.00,,,0.00,Wunderground v.1.15,2013-01-26 15:13:00,
2013-01-26 10:18:00,19.8,10.9,30.19,NNE,27,3.0,4.0,68,0.00,,,0.00,Wunderground v.1.15,2013-01-26 15:18:00,
2013-01-26 10:23:00,19.9,11.0,30.18,North,358,1.0,3.0,68,0.00,,,0.00,Wunderground v.1.15,2013-01-26 15:23:00,
2013-01-26 10:28:00,20.3,11.4,30.18,NNW,335,3.0,3.0,68,0.00,,,0.00,Wunderground v.1.15,2013-01-26 15:28:00,
2013-01-26 10:33:00,20.6,11.4,30.18,North,354,1.0,4.0,67,0.00,,,0.00,Wunderground v.1.15,2013-01-26 15:33:00,
2013-01-26 10:38:00,20.8,11.2,30.18,WNW,298,1.0,4.0,66,0.00,,,0.00,Wunderground v.1.15,2013-01-26 15:38:00,
2013-01-26 10:43:00,20.9,11.3,30.18,WNW,284,1.0,3.0,66,0.00,,,0.00,Wunderground v.1.15,2013-01-26 15:43:00,
2013-01-26 10:48:00,21.3,11.7,30.18,North,358,3.0,4.0,66,0.00,,,0.00,Wunderground v.1.15,2013-01-26 15:48:00,
2013-01-26 10:53:00,21.5,11.5,30.18,NNW,342,2.0,3.0,65,0.00,,,0.00,Wunderground v.1.15,2013-01-26 15:53:00,
2013-01-26 10:58:00,21.6,12.0,30.18,NNE,12,1.0,5.0,66,0.00,,,0.00,Wunderground v.1.15,2013-01-26 15:58:00,
2013-01-26 11:03:00,21.8,11.5,30.18,NNE,22,0.0,2.0,64,0.00,,,0.00,Wunderground v.1.15,2013-01-26 16:03:00,
2013-01-26 11:08:00,22.2,11.5,30.18,NNW,343,2.0,3.0,63,0.00,,,0.00,Wunderground v.1.15,2013-01-26 16:08:00,
2013-01-26 11:16:00,22.5,11.1,30.18,North,357,3.0,4.0,61,0.00,,,0.00,Wunderground v.1.15,2013-01-26 16:16:00,
2013-01-26 11:21:00,22.7,11.3,30.18,NNW,331,0.0,2.0,61,0.00,,,0.00,Wunderground v.1.15,2013-01-26 16:21:00,
2013-01-26 11:26:00,23.0,11.2,30.18,NW,318,0.0,3.0,60,0.00,,,0.00,Wunderground v.1.15,2013-01-26 16:26:00,
2013-01-26 11:31:00,22.9,11.1,30.18,WSW,256,3.0,3.0,60,0.00,,,0.00,Wunderground v.1.15,2013-01-26 16:31:00,
2013-01-26 11:36:00,22.9,11.4,30.18,SW,217,2.0,5.0,61,0.00,,,0.00,Wunderground v.1.15,2013-01-26 16:36:00,
2013-01-26 11:41:00,23.0,11.2,30.17,West,273,1.0,2.0,60,0.00,,,0.00,Wunderground v.1.15,2013-01-26 16:41:00,
2013-01-26 11:46:00,23.3,11.4,30.18,NNE,25,1.0,3.0,60,0.00,,,0.00,Wunderground v.1.15,2013-01-26 16:46:00,
2013-01-26 11:51:00,23.6,11.4,30.18,North,1,1.0,3.0,59,0.00,,,0.00,Wunderground v.1.15,2013-01-26 16:51:00,
2013-01-26 11:56:00,23.6,11.0,30.18,WNW,294,1.0,3.0,58,0.00,,,0.00,Wunderground v.1.15,2013-01-26 16:56:00,
2013-01-26 12:02:00,23.6,11.0,30.17,North,351,0.0,2.0,58,0.00,,,0.00,Wunderground v.1.15,2013-01-26 17:02:00,
2013-01-26 12:07:00,23.6,11.0,30.17,NNW,346,1.0,5.0,58,0.00,,,0.00,Wunderground v.1.15,2013-01-26 17:07:00,
2013-01-26 12:12:00,23.6,10.6,30.17,North,350,1.0,3.0,57,0.00,,,0.00,Wunderground v.1.15,2013-01-26 17:12:00,
2013-01-26 12:17:00,23.5,9.7,30.17,NW,320,2.0,5.0,55,0.00,,,0.00,Wunderground v.1.15,2013-01-26 17:17:00,
2013-01-26 12:21:00,23.3,9.5,30.17,North,1,1.0,2.0,55,0.00,,,0.00,Wunderground v.1.15,2013-01-26 17:21:00,
2013-01-26 12:27:00,23.3,10.3,30.17,West,271,2.0,7.0,57,0.00,,,0.00,Wunderground v.1.15,2013-01-26 17:27:00,
2013-01-26 12:32:00,23.3,9.9,30.16,NNW,346,4.0,4.0,56,0.00,,,0.00,Wunderground v.1.15,2013-01-26 17:32:00,
2013-01-26 12:37:00,23.4,9.6,30.16,North,349,2.0,5.0,55,0.00,,,0.00,Wunderground v.1.15,2013-01-26 17:37:00,
2013-01-26 12:42:00,23.8,10.0,30.15,West,272,1.0,3.0,55,0.00,,,0.00,Wunderground v.1.15,2013-01-26 17:42:00,
2013-01-26 12:47:00,24.3,10.8,30.15,NW,312,1.0,4.0,56,0.00,,,0.00,Wunderground v.1.15,2013-01-26 17:47:00,
2013-01-26 12:52:00,24.8,11.3,30.15,North,358,1.0,2.0,56,0.00,,,0.00,Wunderground v.1.15,2013-01-26 17:52:00,
2013-01-26 12:57:00,25.0,9.8,30.15,NNW,336,0.0,5.0,52,0.00,,,0.00,Wunderground v.1.15,2013-01-26 17:57:00,
2013-01-26 13:02:00,25.1,10.3,30.15,WNW,289,1.0,3.0,53,0.00,,,0.01,Wunderground v.1.15,2013-01-26 18:02:00,
2013-01-26 13:07:00,25.5,11.1,30.15,WSW,253,0.0,3.0,54,0.00,,,0.01,Wunderground v.1.15,2013-01-26 18:07:00,
2013-01-26 13:12:00,25.9,11.1,30.14,NNW,348,3.0,3.0,53,0.00,,,0.01,Wunderground v.1.15,2013-01-26 18:12:00,
2013-01-26 13:17:00,26.1,10.4,30.15,NW,311,2.0,4.0,51,0.00,,,0.01,Wunderground v.1.15,2013-01-26 18:17:00,
2013-01-26 13:22:00,26.2,10.5,30.15,North,360,3.0,3.0,51,0.00,,,0.01,Wunderground v.1.15,2013-01-26 18:22:00,
2013-01-26 13:27:00,26.0,9.4,30.15,NW,322,1.0,3.0,49,0.00,,,0.01,Wunderground v.1.15,2013-01-26 18:27:00,
2013-01-26 13:32:00,25.7,10.0,30.16,North,354,1.0,2.0,51,0.00,,,0.01,Wunderground v.1.15,2013-01-26 18:32:00,
2013-01-26 13:37:00,25.6,10.4,30.16,West,262,2.0,4.0,52,0.00,,,0.01,Wunderground v.1.15,2013-01-26 18:37:00,
2013-01-26 13:42:00,25.8,10.1,30.15,NW,315,1.0,2.0,51,0.00,,,0.01,Wunderground v.1.15,2013-01-26 18:42:00,
2013-01-26 13:47:00,26.2,10.5,30.16,NNE,25,1.0,3.0,51,0.00,,,0.01,Wunderground v.1.15,2013-01-26 18:47:00,
2013-01-26 13:52:00,26.6,10.4,30.15,WSW,244,1.0,1.0,50,0.00,,,0.01,Wunderground v.1.15,2013-01-26 18:52:00,
2013-01-26 13:57:00,26.8,10.6,30.15,ENE,71,1.0,3.0,50,0.00,,,0.01,Wunderground v.1.15,2013-01-26 18:57:00,
2013-01-26 14:02:00,26.9,9.8,30.15,NNW,340,2.0,2.0,48,0.00,,,0.01,Wunderground v.1.15,2013-01-26 19:02:00,
2013-01-26 14:07:00,26.9,9.8,30.15,NNW,347,3.0,3.0,48,0.00,,,0.01,Wunderground v.1.15,2013-01-26 19:07:00,
2013-01-26 14:12:00,27.1,9.5,30.15,West,265,2.0,2.0,47,0.00,,,0.01,Wunderground v.1.15,2013-01-26 19:12:00,
2013-01-26 14:17:00,27.3,9.2,30.15,West,259,2.0,4.0,46,0.00,,,0.01,Wunderground v.1.15,2013-01-26 19:17:00,
2013-01-26 14:22:00,27.7,9.1,30.15,West,259,2.0,4.0,45,0.00,,,0.01,Wunderground v.1.15,2013-01-26 19:22:00,
2013-01-26 14:27:00,27.9,9.8,30.15,NNW,339,0.0,5.0,46,0.00,,,0.01,Wunderground v.1.15,2013-01-26 19:27:00,
2013-01-26 14:32:00,28.1,9.0,30.15,WNW,302,2.0,2.0,44,0.00,,,0.01,Wunderground v.1.15,2013-01-26 19:32:00,
2013-01-26 14:37:00,27.9,8.8,30.15,NNW,342,3.0,7.0,44,0.00,,,0.02,Wunderground v.1.15,2013-01-26 19:37:00,
2013-01-26 14:42:00,27.7,9.1,30.15,NW,313,0.0,2.0,45,0.00,,,0.02,Wunderground v.1.15,2013-01-26 19:42:00,
2013-01-26 14:47:00,27.7,9.1,30.16,NNW,342,2.0,2.0,45,0.00,,,0.02,Wunderground v.1.15,2013-01-26 19:47:00,
2013-01-26 14:52:00,27.8,9.7,30.16,NNW,347,1.0,3.0,46,0.00,,,0.02,Wunderground v.1.15,2013-01-26 19:52:00,
2013-01-26 14:57:00,27.8,9.7,30.16,West,274,1.0,3.0,46,0.00,,,0.02,Wunderground v.1.15,2013-01-26 19:57:00,
2013-01-26 15:02:00,27.9,9.8,30.17,NNW,340,0.0,2.0,46,0.00,,,0.02,Wunderground v.1.15,2013-01-26 20:02:00,
2013-01-26 15:07:00,27.9,8.8,30.16,NNW,342,1.0,4.0,44,0.00,,,0.02,Wunderground v.1.15,2013-01-26 20:07:00,
2013-01-26 15:12:00,28.0,7.8,30.17,NNW,343,0.0,3.0,42,0.00,,,0.02,Wunderground v.1.15,2013-01-26 20:12:00,
2013-01-26 15:17:00,27.8,7.6,30.17,West,259,3.0,5.0,42,0.00,,,0.02,Wunderground v.1.15,2013-01-26 20:17:00,
2013-01-26 15:22:00,27.7,7.6,30.17,North,355,3.0,8.0,42,0.00,,,0.02,Wunderground v.1.15,2013-01-26 20:22:00,
2013-01-26 15:30:00,27.8,7.6,30.17,North,1,4.0,8.0,42,0.00,,,0.02,Wunderground v.1.15,2013-01-26 20:30:00,
2013-01-26 15:36:00,27.8,7.6,30.17,NNW,330,1.0,9.0,42,0.00,,,0.02,Wunderground v.1.15,2013-01-26 20:36:00,
2013-01-26 15:41:00,27.8,7.1,30.18,North,8,5.0,9.0,41,0.00,,,0.02,Wunderground v.1.15,2013-01-26 20:41:00,
2013-01-26 15:46:00,27.7,7.6,30.17,NNW,342,4.0,6.0,42,0.00,,,0.02,Wunderground v.1.15,2013-01-26 20:46:00,
2013-01-26 15:51:00,27.6,7.5,30.17,WNW,301,3.0,7.0,42,0.00,,,0.02,Wunderground v.1.15,2013-01-26 20:51:00,
2013-01-26 15:56:00,27.6,8.0,30.17,WNW,300,3.0,7.0,43,0.00,,,0.02,Wunderground v.1.15,2013-01-26 20:56:00,
2013-01-26 16:01:00,27.5,6.8,30.18,NNW,341,1.0,7.0,41,0.00,,,0.02,Wunderground v.1.15,2013-01-26 21:01:00,
2013-01-26 16:06:00,27.4,7.3,30.18,North,5,2.0,7.0,42,0.00,,,0.02,Wunderground v.1.15,2013-01-26 21:06:00,
2013-01-26 16:11:00,27.4,7.3,30.18,NNW,344,1.0,2.0,42,0.00,,,0.02,Wunderground v.1.15,2013-01-26 21:11:00,
2013-01-26 16:16:00,27.2,6.6,30.18,NNW,330,4.0,12.0,41,0.00,,,0.02,Wunderground v.1.15,2013-01-26 21:16:00,
2013-01-26 16:21:00,27.1,6.5,30.19,West,270,1.0,3.0,41,0.00,,,0.02,Wunderground v.1.15,2013-01-26 21:21:00,
2013-01-26 16:26:00,27.0,6.4,30.19,NNW,342,2.0,8.0,41,0.00,,,0.02,Wunderground v.1.15,2013-01-26 21:26:00,
2013-01-26 16:31:00,26.9,6.8,30.19,NNE,21,1.0,3.0,42,0.00,,,0.02,Wunderground v.1.15,2013-01-26 21:31:00,
2013-01-26 16:36:00,26.8,6.7,30.20,NW,321,2.0,7.0,42,0.00,,,0.02,Wunderground v.1.15,2013-01-26 21:36:00,
2013-01-26 16:41:00,26.7,6.6,30.20,NW,321,1.0,2.0,42,0.00,,,0.02,Wunderground v.1.15,2013-01-26 21:41:00,
2013-01-26 16:46:00,26.6,6.6,30.20,West,275,2.0,5.0,42,0.00,,,0.02,Wunderground v.1.15,2013-01-26 21:46:00,
2013-01-26 16:51:00,26.5,7.0,30.20,NW,308,2.0,2.0,43,0.00,,,0.02,Wunderground v.1.15,2013-01-26 21:51:00,
2013-01-26 16:56:00,26.3,6.8,30.21,NNW,343,2.0,6.0,43,0.00,,,0.02,Wunderground v.1.15,2013-01-26 21:56:00,
2013-01-26 17:01:00,26.1,6.6,30.21,North,359,5.0,7.0,43,0.00,,,0.02,Wunderground v.1.15,2013-01-26 22:01:00,
2013-01-26 17:07:00,26.0,6.5,30.21,North,352,5.0,9.0,43,0.00,,,0.02,Wunderground v.1.15,2013-01-26 22:07:00,
2013-01-26 17:12:00,25.7,6.8,30.22,NW,320,2.0,5.0,44,0.00,,,0.02,Wunderground v.1.15,2013-01-26 22:12:00,
2013-01-26 17:17:00,25.6,7.2,30.22,North,350,2.0,6.0,45,0.00,,,0.02,Wunderground v.1.15,2013-01-26 22:17:00,
2013-01-26 17:22:00,25.4,6.5,30.23,North,357,3.0,4.0,44,0.00,,,0.02,Wunderground v.1.15,2013-01-26 22:22:00,
2013-01-26 17:27:00,25.3,6.9,30.23,NNW,346,2.0,4.0,45,0.00,,,0.02,Wunderground v.1.15,2013-01-26 22:27:00,
2013-01-26 17:32:00,25.2,6.8,30.24,NNW,344,5.0,6.0,45,0.00,,,0.02,Wunderground v.1.15,2013-01-26 22:32:00,
2013-01-26 17:37:00,25.0,6.6,30.24,North,355,1.0,6.0,45,0.00,,,0.02,Wunderground v.1.15,2013-01-26 22:37:00,
2013-01-26 17:42:00,24.8,6.4,30.24,NNW,339,2.0,3.0,45,0.00,,,0.02,Wunderground v.1.15,2013-01-26 22:42:00,
2013-01-26 17:47:00,24.7,6.8,30.24,NNW,339,3.0,4.0,46,0.00,,,0.02,Wunderground v.1.15,2013-01-26 22:47:00,
2013-01-26 17:52:00,24.5,6.6,30.25,NNW,343,1.0,4.0,46,0.00,,,0.02,Wunderground v.1.15,2013-01-26 22:52:00,
2013-01-26 17:57:00,24.4,6.6,30.25,NW,311,1.0,4.0,46,0.00,,,0.02,Wunderground v.1.15,2013-01-26 22:57:00,
2013-01-26 18:02:00,24.2,6.4,30.25,NNW,335,0.0,9.0,46,0.00,,,0.02,Wunderground v.1.15,2013-01-26 23:02:00,
2013-01-26 18:07:00,24.2,6.8,30.26,NNE,24,2.0,9.0,47,0.00,,,0.02,Wunderground v.1.15,2013-01-26 23:07:00,
2013-01-26 18:12:00,24.0,6.7,30.27,WNW,284,2.0,5.0,47,0.00,,,0.02,Wunderground v.1.15,2013-01-26 23:12:00,
2013-01-26 18:17:00,23.9,6.6,30.27,North,349,1.0,5.0,47,0.00,,,0.02,Wunderground v.1.15,2013-01-26 23:17:00,
2013-01-26 18:22:00,23.8,6.5,30.28,North,354,2.0,5.0,47,0.00,,,0.02,Wunderground v.1.15,2013-01-26 23:22:00,
2013-01-26 18:27:00,23.7,6.4,30.27,NNW,346,2.0,5.0,47,0.00,,,0.02,Wunderground v.1.15,2013-01-26 23:27:00,
2013-01-26 18:32:00,23.6,6.3,30.26,North,2,5.0,5.0,47,0.00,,,0.02,Wunderground v.1.15,2013-01-26 23:32:00,
2013-01-26 18:37:00,23.6,6.3,30.26,North,352,2.0,5.0,47,0.00,,,0.02,Wunderground v.1.15,2013-01-26 23:37:00,
2013-01-26 18:42:00,23.5,6.2,30.27,NNW,338,2.0,3.0,47,0.00,,,0.02,Wunderground v.1.15,2013-01-26 23:42:00,
2013-01-26 18:47:00,23.4,6.6,30.27,NNW,344,0.0,5.0,48,0.00,,,0.02,Wunderground v.1.15,2013-01-26 23:47:00,
2013-01-26 18:52:00,23.3,6.5,30.28,North,354,0.0,1.0,48,0.00,,,0.02,Wunderground v.1.15,2013-01-26 23:52:00,
2013-01-26 18:57:00,23.1,6.3,30.28,NNW,348,1.0,7.0,48,0.00,,,0.02,Wunderground v.1.15,2013-01-26 23:57:00,
2013-01-26 19:02:00,23.0,6.7,30.28,WNW,284,1.0,4.0,49,0.00,,,0.02,Wunderground v.1.15,2013-01-27 00:02:00,
2013-01-26 19:07:00,23.0,6.7,30.28,NW,310,1.0,6.0,49,0.00,,,0.02,Wunderground v.1.15,2013-01-27 00:07:00,
2013-01-26 19:12:00,22.9,6.6,30.28,NNW,335,2.0,3.0,49,0.00,,,0.02,Wunderground v.1.15,2013-01-27 00:12:00,
2013-01-26 19:17:00,22.8,6.5,30.28,North,356,3.0,4.0,49,0.00,,,0.02,Wunderground v.1.15,2013-01-27 00:17:00,
2013-01-26 19:22:00,22.8,6.9,30.28,NNW,344,0.0,2.0,50,0.00,,,0.02,Wunderground v.1.15,2013-01-27 00:22:00,
2013-01-26 19:27:00,22.6,6.7,30.29,NNW,332,0.0,8.0,50,0.00,,,0.02,Wunderground v.1.15,2013-01-27 00:27:00,
2013-01-26 19:32:00,22.6,6.7,30.29,NNW,345,1.0,3.0,50,0.00,,,0.02,Wunderground v.1.15,2013-01-27 00:32:00,
2013-01-26 19:37:00,22.5,6.6,30.29,North,353,0.0,3.0,50,0.00,,,0.02,Wunderground v.1.15,2013-01-27 00:37:00,
2013-01-26 19:42:00,22.3,6.9,30.29,NW,316,2.0,2.0,51,0.00,,,0.02,Wunderground v.1.15,2013-01-27 00:42:00,
2013-01-26 19:47:00,22.2,6.8,30.30,NW,313,0.0,2.0,51,0.00,,,0.02,Wunderground v.1.15,2013-01-27 00:47:00,
2013-01-26 19:52:00,22.1,6.7,30.30,NNW,347,1.0,2.0,51,0.00,,,0.02,Wunderground v.1.15,2013-01-27 00:52:00,
2013-01-26 19:57:00,22.0,7.0,30.30,West,279,2.0,3.0,52,0.00,,,0.02,Wunderground v.1.15,2013-01-27 00:57:00,
2013-01-26 20:02:00,22.0,7.0,30.30,West,280,1.0,3.0,52,0.00,,,0.02,Wunderground v.1.15,2013-01-27 01:02:00,
2013-01-26 20:07:00,22.0,6.6,30.31,North,356,7.0,7.0,51,0.00,,,0.02,Wunderground v.1.15,2013-01-27 01:07:00,
2013-01-26 20:12:00,22.0,6.6,30.31,North,349,4.0,4.0,51,0.00,,,0.02,Wunderground v.1.15,2013-01-27 01:12:00,
2013-01-26 20:17:00,22.0,6.6,30.31,NNW,330,3.0,4.0,51,0.00,,,0.02,Wunderground v.1.15,2013-01-27 01:17:00,
2013-01-26 20:22:00,21.9,6.9,30.31,North,7,7.0,10.0,52,0.00,,,0.02,Wunderground v.1.15,2013-01-27 01:22:00,
2013-01-26 20:27:00,21.8,6.4,30.32,NW,306,1.0,10.0,51,0.00,,,0.02,Wunderground v.1.15,2013-01-27 01:27:00,
2013-01-26 20:32:00,21.8,6.4,30.32,NNW,331,2.0,3.0,51,0.00,,,0.02,Wunderground v.1.15,2013-01-27 01:32:00,
2013-01-26 20:37:00,21.7,6.3,30.32,North,351,2.0,4.0,51,0.00,,,0.02,Wunderground v.1.15,2013-01-27 01:37:00,
2013-01-26 20:42:00,21.6,6.7,30.32,North,356,2.0,2.0,52,0.00,,,0.02,Wunderground v.1.15,2013-01-27 01:42:00,
2013-01-26 20:47:00,21.5,6.6,30.32,North,358,3.0,5.0,52,0.00,,,0.02,Wunderground v.1.15,2013-01-27 01:47:00,
2013-01-26 20:52:00,21.4,6.5,30.33,NNW,338,2.0,2.0,52,0.00,,,0.02,Wunderground v.1.15,2013-01-27 01:52:00,
2013-01-26 20:57:00,21.3,6.8,30.33,NNE,32,4.0,4.0,53,0.00,,,0.02,Wunderground v.1.15,2013-01-27 01:57:00,
2013-01-26 21:02:00,21.3,6.8,30.33,WNW,284,0.0,10.0,53,0.00,,,0.02,Wunderground v.1.15,2013-01-27 02:02:00,
2013-01-26 21:07:00,21.2,6.7,30.34,NNW,335,2.0,10.0,53,0.00,,,0.02,Wunderground v.1.15,2013-01-27 02:07:00,
2013-01-26 21:12:00,21.1,7.0,30.34,North,356,2.0,2.0,54,0.00,,,0.02,Wunderground v.1.15,2013-01-27 02:12:00,
2013-01-26 21:18:00,21.0,6.9,30.34,NNW,348,2.0,6.0,54,0.00,,,0.02,Wunderground v.1.15,2013-01-27 02:18:00,
2013-01-26 21:23:00,21.0,6.9,30.34,North,5,1.0,2.0,54,0.00,,,0.02,Wunderground v.1.15,2013-01-27 02:23:00,
2013-01-26 21:28:00,20.9,7.2,30.35,WNW,302,1.0,4.0,55,0.00,,,0.02,Wunderground v.1.15,2013-01-27 02:28:00,
2013-01-26 21:33:00,20.8,7.2,30.35,NNW,348,1.0,3.0,55,0.00,,,0.02,Wunderground v.1.15,2013-01-27 02:33:00,
2013-01-26 21:38:00,20.7,7.1,30.35,North,359,0.0,3.0,55,0.00,,,0.02,Wunderground v.1.15,2013-01-27 02:38:00,
2013-01-26 21:43:00,20.7,7.5,30.36,North,349,1.0,3.0,56,0.00,,,0.02,Wunderground v.1.15,2013-01-27 02:43:00,
2013-01-26 21:48:00,20.7,7.5,30.36,NNW,347,0.0,4.0,56,0.00,,,0.02,Wunderground v.1.15,2013-01-27 02:48:00,
2013-01-26 21:55:00,20.5,7.3,30.36,NW,323,0.0,1.0,56,0.00,,,0.02,Wunderground v.1.15,2013-01-27 02:55:00,
2013-01-26 22:01:00,20.5,7.7,30.36,NNW,336,0.0,1.0,57,0.00,,,0.02,Wunderground v.1.15,2013-01-27 03:01:00,
2013-01-26 22:06:00,20.4,7.6,30.36,NNW,346,1.0,2.0,57,0.00,,,0.02,Wunderground v.1.15,2013-01-27 03:06:00,
2013-01-26 22:11:00,20.3,7.5,30.37,NNW,346,0.0,1.0,57,0.00,,,0.02,Wunderground v.1.15,2013-01-27 03:11:00,
2013-01-26 22:16:00,20.2,7.4,30.37,NNW,341,3.0,5.0,57,0.00,,,0.02,Wunderground v.1.15,2013-01-27 03:16:00,
2013-01-26 22:21:00,20.2,7.4,30.37,North,356,1.0,1.0,57,0.00,,,0.02,Wunderground v.1.15,2013-01-27 03:21:00,
2013-01-26 22:27:00,20.2,7.4,30.37,NNW,335,0.0,3.0,57,0.00,,,0.02,Wunderground v.1.15,2013-01-27 03:27:00,
2013-01-26 22:32:00,20.1,7.7,30.37,NNW,347,1.0,3.0,58,0.00,,,0.02,Wunderground v.1.15,2013-01-27 03:32:00,
2013-01-26 22:37:00,20.0,7.6,30.38,North,360,2.0,3.0,58,0.00,,,0.02,Wunderground v.1.15,2013-01-27 03:37:00,
2013-01-26 22:42:00,20.0,7.6,30.38,North,360,0.0,1.0,58,0.00,,,0.02,Wunderground v.1.15,2013-01-27 03:42:00,
2013-01-26 22:47:00,19.9,7.5,30.38,NW,316,1.0,2.0,58,0.00,,,0.02,Wunderground v.1.15,2013-01-27 03:47:00,
2013-01-26 22:52:00,19.8,7.8,30.38,NW,317,2.0,3.0,59,0.00,,,0.02,Wunderground v.1.15,2013-01-27 03:52:00,
2013-01-26 22:57:00,19.8,7.8,30.38,NNE,15,0.0,3.0,59,0.00,,,0.02,Wunderground v.1.15,2013-01-27 03:57:00,
2013-01-26 23:02:00,19.7,7.7,30.39,NNE,15,1.0,2.0,59,0.00,,,0.02,Wunderground v.1.15,2013-01-27 04:02:00,
2013-01-26 23:07:00,19.7,7.7,30.39,WNW,302,2.0,2.0,59,0.00,,,0.02,Wunderground v.1.15,2013-01-27 04:07:00,
2013-01-26 23:12:00,19.6,7.6,30.38,WNW,302,0.0,1.0,59,0.00,,,0.02,Wunderground v.1.15,2013-01-27 04:12:00,
2013-01-26 23:17:00,19.5,7.9,30.39,NNW,342,1.0,4.0,60,0.00,,,0.02,Wunderground v.1.15,2013-01-27 04:17:00,
2013-01-26 23:22:00,19.5,7.9,30.39,NNW,342,0.0,1.0,60,0.00,,,0.02,Wunderground v.1.15,2013-01-27 04:22:00,
2013-01-26 23:27:00,19.4,7.8,30.39,North,357,0.0,3.0,60,0.00,,,0.02,Wunderground v.1.15,2013-01-27 04:27:00,
2013-01-26 23:32:00,19.3,8.0,30.39,NNE,31,0.0,1.0,61,0.00,,,0.02,Wunderground v.1.15,2013-01-27 04:32:00,
2013-01-26 23:37:00,19.3,8.0,30.39,NNW,344,4.0,4.0,61,0.00,,,0.02,Wunderground v.1.15,2013-01-27 04:37:00,
2013-01-26 23:42:00,19.3,8.0,30.39,NNW,342,0.0,1.0,61,0.00,,,0.02,Wunderground v.1.15,2013-01-27 04:42:00,
2013-01-26 23:47:00,19.2,8.3,30.39,WNW,294,1.0,2.0,62,0.00,,,0.02,Wunderground v.1.15,2013-01-27 04:47:00,
2013-01-26 23:52:00,19.2,8.3,30.39,WNW,294,0.0,1.0,62,0.00,,,0.02,Wunderground v.1.15,2013-01-27 04:52:00,
2013-01-26 23:57:00,19.1,8.2,30.39,NNW,344,0.0,2.0,62,0.00,,,0.02,Wunderground v.1.15,2013-01-27 04:57:00,